Tracking 19562 objects as of 24-Mar-2019
HD Live streaming from Space Station
objects crossing your sky now

EKRAN 16

Track EKRAN 16 now!
EKRAN 16 is classified as:


NORAD ID: 18328
Int'l Code: 1987-073A
Perigee: 36,877.1 km
Apogee: 36,903.4 km
Inclination: 15.7 °
Period: 1,492.5 minutes
Semi major axis: 43261 km
RCS: 5.9402 m2 (large)
Launch date: September 3, 1987
Source: Commonwealth of Independent States (former USSR) (CIS)
Launch site: TYURATAM MISSILE AND SPACE COMPLEX (TTMTR)
aabbcc
Your satellite tracking list
Your tracking list is empty




NASA's NSSDC Master Catalog

Two Line Element Set (TLE):
1 18328U 87073A   19081.36646549 -.00000095  00000-0  00000+0 0  9993
2 18328  15.6504 348.3892 0003037 354.7256 212.2589  0.96483789111496
Source of the keplerian elements: AFSPC